Location: Black Creek
(40.9000°S, 175.5500°E)
Time: 17:21:39
(UTC+00:00)

Helios 1B rocket - Pass Details

Date: 04 August 2024
Orbit: 525 x 536 km, 98.2° (Epoch: 17 September)

Event Time Altitude Azimuth Distance (km) Brightness Sun altitude
Rises 18:28:18 0° 20° (NNE) 2,677 6.3 -10.2°
Reaches altitude 10° 18:30:25 10° 23° (NNE) 1,791 5.5 -9.8°
Maximum altitude 18:34:15 69° 105° (ESE) 582 2.6 -9.1°
Drops below altitude 10° 18:38:08 10° 188° (S) 1,808 4.7 -8.4°
Sets 18:40:16 0° 190° (S) 2,705 5.6 -8.0°
